LASARSAT

Last updated on Sun Jun 21 2026 00:03:50 GMT+0000 (Coordinated Universal Time)

1 62391U 24247Q 26171.27059198 .00028493 00000+0 56523-3 0 9997 2 62391 44.9733 244.8864 0007836 348.4451 11.6258 15.46534749 83790
UTC large
Height (km)
Speed (km/s)
/
Latitude / Longitude
Inclination (degrees)
Orbital Period (minutes)
Azimuth
Elevation
Range (km)
Doppler Factor

Next 0 passes for location: London (51.5072 / 0.1276)

No passes found over London.
LASARSAT